Weather History for Elmendorf AFB, AK

Change the Weather History Date:

Wednesday, October 10, 2012

  Actual Average Record
Temperature  
Mean Temperature 44 °F -  
Max Temperature 49 °F 40 °F 57 °F (2006)
Min Temperature 39 °F 30 °F 6 °F (1969)
Degree Days  
Heating Degree Days 21    
Moisture  
Dew Point 42 °F    
Average Humidity 94    
Maximum Humidity 100    
Minimum Humidity 62    
Precipitation  
Precipitation 0.00 in - - ()
Sea Level Pressure  
Sea Level Pressure 30.05 in    
Wind  
Wind Speed 2 mph (North)    
Max Wind Speed 13 mph    
Max Gust Speed -    
Visibility 7 miles    
Events Fog    
Averages and records for this station are not official NWS values.
T = Trace of Precipitation, MM = Missing Value Source: NWS Daily Summary

Daily Weather History Graph

Daily Weather History Graph

Search for Another Location

Airport:

Trip Planner

Search our weather history database for the weather conditions in past years. The results will help you decide how hot, cold, wet, or windy it might be!

Date:

Astronomy

Oct. 10, 2012 Rise Set
Actual Time 8:30 AM AKDT 7:00 PM AKDT
Civil Twilight 7:46 AM AKDT 7:43 PM AKDT
Nautical Twilight 6:56 AM AKDT 8:33 PM AKDT
Astronomical Twilight 6:05 AM AKDT 9:24 PM AKDT
Moon 1:57 AM AKDT (10/10) 5:16 PM AKDT (10/10)
Length of Visible Light 11h 56m
Length of Day
10h 29m
Waning Crescent, 26% of the Moon is Illuminated
Oct 10
Waning Crescent
Oct 15
New
Oct 21
First Quarter
Oct 29
Full
Nov 6
Last Quarter

Hourly Weather History & Observations

Time (AKDT) Temp. Windchill Dew Point Humidity Pressure Visibility Wind Dir Wind Speed Gust Speed Precip Events Conditions
12:55 AM 45.3 °F - 44.6 °F 97% 30.10 in 10.0 mi Calm Calm - N/A   Overcast
1:02 AM 44.6 °F - 44.6 °F 100% 30.10 in 10.0 mi Calm Calm - N/A   Overcast
1:26 AM 44.6 °F - 44.6 °F 100% 30.10 in 10.0 mi Calm Calm - N/A   Overcast
1:41 AM 44.6 °F - 44.6 °F 100% 30.10 in 10.0 mi Calm Calm - N/A   Overcast
1:42 AM 44.6 °F - 44.6 °F 100% 30.10 in 10.0 mi Calm Calm - N/A   Overcast
1:46 AM 44.6 °F - 44.6 °F 100% 30.10 in 10.0 mi Calm Calm - N/A   Overcast
1:49 AM 44.6 °F - 44.6 °F 100% 30.10 in 10.0 mi Calm Calm - N/A   Overcast
1:51 AM 44.6 °F - 44.6 °F 100% 30.09 in 10.0 mi Calm Calm - N/A   Overcast
1:55 AM 45.0 °F - 44.8 °F 99% 30.09 in 10.0 mi Calm Calm - N/A   Overcast
1:56 AM 44.6 °F - 44.6 °F 100% 30.09 in 10.0 mi Calm Calm - N/A   Overcast
2:01 AM 44.6 °F - 44.6 °F 100% 30.09 in 10.0 mi Calm Calm - N/A   Overcast
2:13 AM 44.6 °F - 44.6 °F 100% 30.09 in 10.0 mi Calm Calm - N/A   Overcast
2:14 AM 44.6 °F - 44.6 °F 100% 30.09 in 10.0 mi Calm Calm - N/A   Overcast
2:15 AM 44.6 °F - 44.6 °F 100% 30.09 in 10.0 mi Calm Calm - N/A   Overcast
2:22 AM 44.6 °F - 44.6 °F 100% 30.09 in 10.0 mi Calm Calm - N/A   Overcast
2:28 AM 44.6 °F - 44.6 °F 100% 30.09 in 10.0 mi Calm Calm - N/A   Overcast
2:32 AM 44.6 °F - 44.6 °F 100% 30.09 in 10.0 mi Calm Calm - N/A   Overcast
2:41 AM 44.6 °F - 44.6 °F 100% 30.09 in 10.0 mi Calm Calm - N/A   Overcast
2:43 AM 44.6 °F - 44.6 °F 100% 30.09 in 10.0 mi Calm Calm - N/A   Overcast
2:45 AM 44.6 °F - 44.6 °F 100% 30.09 in 10.0 mi Calm Calm - N/A   Overcast
2:52 AM 44.6 °F - 44.6 °F 100% 30.09 in 10.0 mi Calm Calm - N/A   Overcast
2:55 AM 45.3 °F - 45.0 °F 99% 30.08 in 10.0 mi Calm Calm - N/A   Overcast
2:58 AM 44.6 °F - 44.6 °F 100% 30.08 in 10.0 mi Calm Calm - N/A   Overcast
3:02 AM 44.6 °F - 44.6 °F 100% 30.08 in 10.0 mi Calm Calm - N/A   Overcast
3:04 AM 44.6 °F - 44.6 °F 100% 30.08 in 10.0 mi Calm Calm - N/A   Overcast
3:20 AM 44.6 °F - 44.6 °F 100% 30.08 in 10.0 mi Calm Calm - N/A   Overcast
3:38 AM 44.6 °F - 42.8 °F 93% 30.08 in 10.0 mi Calm Calm - N/A   Overcast
3:46 AM 44.6 °F 43.1 °F 42.8 °F 93% 30.08 in 10.0 mi SE 3.5 mph - N/A   Overcast
3:55 AM 44.2 °F - 42.3 °F 93% 30.07 in 10.0 mi Calm Calm - N/A   Overcast
3:59 AM 44.6 °F - 42.8 °F 93% 30.07 in 10.0 mi Calm Calm - N/A   Overcast
4:11 AM 44.6 °F - 42.8 °F 93% 30.07 in 10.0 mi Calm Calm - N/A   Overcast
4:20 AM 44.6 °F - 41.0 °F 87% 30.06 in 10.0 mi Calm Calm - N/A   Overcast
4:55 AM 44.1 °F - 41.7 °F 91% 30.06 in 10.0 mi Calm Calm - N/A   Overcast
4:57 AM 44.6 °F - 41.0 °F 87% 30.06 in 10.0 mi Calm Calm - N/A   Overcast
5:04 AM 44.6 °F - 41.0 °F 87% 30.06 in 10.0 mi Calm Calm - N/A   Overcast
5:52 AM 44.6 °F - 42.8 °F 93% 30.05 in 10.0 mi Calm Calm - N/A   Overcast
5:55 AM 43.9 °F - 42.1 °F 93% 30.05 in 10.0 mi Calm Calm - N/A   Overcast
6:04 AM 44.6 °F - 42.8 °F 93% 30.05 in 10.0 mi Calm Calm - N/A   Overcast
6:32 AM 42.8 °F - 42.8 °F 100% 30.05 in 10.0 mi Calm Calm - N/A   Overcast
6:37 AM 42.8 °F 41.1 °F 42.8 °F 100% 30.05 in 10.0 mi Variable 3.5 mph - N/A   Overcast
6:53 AM 42.8 °F - 42.8 °F 100% 30.04 in 10.0 mi Calm Calm - N/A   Overcast
6:55 AM 43.3 °F - 43.0 °F 99% 30.04 in 10.0 mi Calm Calm - N/A   Overcast
7:03 AM 42.8 °F 40.1 °F 42.8 °F 100% 30.04 in 2.5 mi North 4.6 mph - N/A   Overcast
7:05 AM 42.8 °F 39.3 °F 42.8 °F 100% 30.04 in 1.5 mi North 5.8 mph - N/A   Overcast
7:06 AM 42.8 °F 40.1 °F 42.8 °F 100% 30.04 in 1.2 mi North 4.6 mph - N/A   Overcast
7:08 AM 42.8 °F 41.1 °F 42.8 °F 100% 30.04 in 1.0 mi North 3.5 mph - N/A   Overcast
7:11 AM 42.8 °F - 42.8 °F 100% 30.04 in 0.8 mi Calm Calm - N/A   Overcast
7:12 AM 42.8 °F 41.1 °F 42.8 °F 100% 30.04 in 0.8 mi NNE 3.5 mph - N/A   Overcast
8:06 AM 41.0 °F 35.8 °F 41.0 °F 100% 30.03 in 0.8 mi North 8.1 mph - N/A   Overcast
8:08 AM 41.0 °F 35.2 °F 41.0 °F 100% 30.03 in 0.8 mi North 9.2 mph - N/A   Overcast
8:17 AM 41.0 °F 35.8 °F 41.0 °F 100% 30.03 in 0.5 mi North 8.1 mph - N/A Fog Fog
8:20 AM 41.0 °F 35.8 °F 41.0 °F 100% 30.03 in 0.5 mi North 8.1 mph - N/A Fog Fog
8:21 AM 41.0 °F 35.8 °F 41.0 °F 100% 30.03 in 0.2 mi North 8.1 mph - N/A Fog Fog
8:25 AM 41.0 °F 35.8 °F 41.0 °F 100% 30.03 in 0.2 mi North 8.1 mph - N/A Fog Fog
8:47 AM 41.0 °F 36.4 °F 41.0 °F 100% 30.03 in 0.2 mi NNW 6.9 mph - N/A Fog Fog
8:49 AM 41.0 °F 36.4 °F 41.0 °F 100% 30.03 in 0.2 mi NW 6.9 mph - N/A Fog Fog
8:55 AM 41.0 °F 35.8 °F 40.6 °F 99% 30.03 in 0.2 mi NNW 8.1 mph - N/A Fog Fog
8:57 AM 41.0 °F 35.8 °F 41.0 °F 100% 30.03 in 0.2 mi NNW 8.1 mph - N/A Fog Fog
8:58 AM 41.0 °F 35.8 °F 41.0 °F 100% 30.03 in 0.2 mi NNW 8.1 mph - N/A Fog Fog
8:59 AM 41.0 °F 36.4 °F 41.0 °F 100% 30.03 in 0.5 mi NNW 6.9 mph - N/A Fog Fog
9:03 AM 41.0 °F 36.4 °F 41.0 °F 100% 30.03 in 0.5 mi NNW 6.9 mph - N/A Fog Fog
9:12 AM 41.0 °F 35.8 °F 41.0 °F 100% 30.03 in 0.5 mi North 8.1 mph - N/A Fog Fog
9:18 AM 41.0 °F 36.4 °F 41.0 °F 100% 30.03 in 0.8 mi North 6.9 mph - N/A   Overcast
9:20 AM 41.0 °F 36.4 °F 41.0 °F 100% 30.03 in 1.0 mi NNW 6.9 mph - N/A   Overcast
9:21 AM 41.0 °F 36.4 °F 39.2 °F 93% 30.03 in 1.2 mi NNW 6.9 mph - N/A   Overcast
9:22 AM 41.0 °F 35.8 °F 39.2 °F 93% 30.03 in 2.0 mi NNW 8.1 mph - N/A   Overcast
9:23 AM 41.0 °F 35.8 °F 39.2 °F 93% 30.03 in 4.0 mi NNW 8.1 mph - N/A   Overcast
9:55 AM 39.6 °F 34.0 °F 37.9 °F 94% 30.04 in 10.0 mi NNW 8.1 mph - N/A   Overcast
10:00 AM 39.2 °F 34.2 °F 37.4 °F 93% 30.04 in 10.0 mi North 6.9 mph - N/A   Overcast
10:26 AM 42.8 °F - 41.0 °F 93% 30.03 in 7.0 mi Calm Calm - N/A Fog Mostly Cloudy
10:31 AM 42.8 °F - 41.0 °F 93% 30.03 in 10.0 mi Calm Calm - N/A   Mostly Cloudy
10:41 AM 42.8 °F - 39.2 °F 87% 30.04 in 10.0 mi Calm Calm - N/A   Overcast
10:45 AM 42.8 °F - 39.2 °F 87% 30.04 in 10.0 mi Calm Calm - N/A   Overcast
10:55 AM 42.4 °F - 40.1 °F 91% 30.04 in 10.0 mi Calm Calm - N/A   Overcast
11:43 AM 44.6 °F 41.4 °F 41.0 °F 87% 30.04 in 10.0 mi ENE 5.8 mph - N/A   Mostly Cloudy
11:53 AM 44.6 °F 40.7 °F 41.0 °F 87% 30.04 in 10.0 mi ENE 6.9 mph - N/A   Scattered Clouds
11:55 AM 44.4 °F 40.5 °F 41.0 °F 88% 30.04 in 10.0 mi ENE 6.9 mph - N/A   Scattered Clouds
12:00 PM 44.6 °F 40.7 °F 41.0 °F 87% 30.02 in 10.0 mi East 6.9 mph - N/A   Scattered Clouds
12:55 PM 47.5 °F - 41.0 °F 78% 30.03 in 10.0 mi North 6.9 mph - N/A   Clear
1:55 PM 48.7 °F - 41.4 °F 76% 30.02 in 10.0 mi NNE 9.2 mph - N/A   Clear
2:55 PM 49.5 °F - 38.8 °F 67% 30.01 in 10.0 mi North 12.7 mph - N/A   Clear
3:55 PM 48.7 °F - 38.3 °F 67% 30.01 in 10.0 mi NNW 8.1 mph - N/A   Clear
4:55 PM 49.5 °F - 39.6 °F 69% 29.99 in 10.0 mi North 8.1 mph - N/A   Clear
5:55 PM 49.5 °F - 38.7 °F 66% 29.98 in 10.0 mi North 5.8 mph - N/A   Clear
6:55 PM 47.1 °F - 39.2 °F 74% 29.98 in 10.0 mi Calm Calm - N/A   Clear
7:55 PM 45.5 °F 43.2 °F 37.9 °F 75% 29.97 in 10.0 mi North 4.6 mph - N/A   Clear
8:55 PM 42.8 °F 38.6 °F 36.0 °F 77% 29.96 in 10.0 mi NE 6.9 mph - N/A   Clear
9:55 PM 40.3 °F 37.1 °F 36.3 °F 86% 29.96 in 10.0 mi NNE 4.6 mph - N/A   Clear
10:55 PM 41.2 °F 36.6 °F 32.7 °F 72% 29.95 in 10.0 mi NNW 6.9 mph - N/A   Clear
11:55 PM 39.9 °F 33.9 °F 27.9 °F 62% 29.94 in 10.0 mi North 9.2 mph - N/A   Clear